Location: Zagreb
(45.8000°N, 16.0000°E)
Time: 00:42:06
(UTC+01:00)

Transit 2A Rocket - Pass Details

Date: 11 October 2020
Orbit: 586 x 916 km, 66.7° (Epoch: 28 October)

Event Time Altitude Azimuth Distance (km) Brightness Sun altitude
Rises 12:55:31 0° 154° (SSE) 3,519 9.2 36.8°
Reaches altitude 10° 12:59:24 10° 130° (SE) 2,601 8.3 36.8°
Maximum altitude 13:02:12 14° 102° (ESE) 2,356 7.7 36.7°
Drops below altitude 10° 13:05:01 10° 74° (ENE) 2,603 7.6 36.7°
Sets 13:08:53 0° 50° (NE) 3,522 8.1 36.6°
